sat.trackr.live / text

‹ back to catalog

STARLINK-32398

NORAD 61624 · 2024-191D

PAYLOAD ACTIVE UNKNOWN

§ Identity

Operator
Country
US
Launch date
2024-10-23
Launch site
AFETR
Launch vehicle
Mass (kg)
RCS (m²)

Purposes: comms

External: N2YO · Heavens-Above · Gunter

§ Orbital elements

Epoch: 2026-09-20T23:35:32.590176Z

Period
94.27 min
Inclination
43.0015°
Eccentricity
0.0001276
Mean motion
15.27580732 rev/d
Perigee alt
482.2 km
Apogee alt
483.9 km
Semi-major
6,861.2 km
B*
2.1994e-5
RAAN
131.6175°
Arg perigee
265.5522°
Mean anomaly
94.5184°
Rev number
10,740

§ Raw data

STARLINK-323981 61624U 24191D   26263.98301609  .00000343  00000+0  21994-4 0  99992 61624  43.0015 131.6175 0001276 265.5522  94.5184 15.27580732107404

JSON: /api/v1/satellites/61624 · /tle

For live sub-satellite position, see the globe view (requires WebGL).

§ Visibility from observer

Set your observer location to see the next 7 days of passes ≥ 10°. The values pass through the URL so the page stays shareable.

No JS? Fill the form by hand. The geolocation button needs JavaScript.